Location: Cheyres
(46.8153°N, 6.7877°E)
Time: 07:19:06
(UTC+00:00)

AO-109 - Pass Details

Date: 07 July 2022
Orbit: 469 x 506 km, 60.7° (Epoch: 14 August)

Event Time Altitude Azimuth Distance (km) Brightness Sun altitude
Exits shadow 01:47:42 28° 195° (SSW) 931 ? -14.6°
Maximum altitude 01:49:24 55° 129° (SE) 585 ? -14.5°
Drops below altitude 10° 01:53:04 10° 52° (NE) 1,673 ? -14.2°
Sets 01:55:16 0° 48° (NE) 2,566 ? -14.0°
